Regional Weather Roundup
Issued by NWS Newport/Morehead, NC

Current Version | Previous Version | Graphics & Text | Print | Product List | Glossary On
Versions: 1 2 3 4 5 6 7 8 9 10 11 12 13 14 15 16 17 18 19 20 21 22 23 24 25 26 27 28 29 30 31 32 33 34 35 36 37 38 39 40 41 42 43 44 45 46 47 48 49 50
719 ASUS42 KMHX 281213 RWRMHX WEATHER ROUNDUP FOR EASTERN NORTH CAROLINA NATIONAL WEATHER SERVICE NEWPORT/MOREHEAD CITY NC 800 AM EDT FRI APR 28 2017 NOTE: "FAIR" INDICATES FEW OR NO CLOUDS BELOW 12,000 FEET WITH NO SIGNIFICANT WEATHER AND/OR OBSTRUCTIONS TO VISIBILITY NCZ015>017-031-032-045>047-102-103-281300- NORTH COAST CITY SKY/WX TMP DP RH WIND PRES REMARKS EDENTON CLOUDY 75 71 87 SW6 30.05R ELIZABETH CITY CLOUDY 73 72 96 S8 30.03R KITTY HAWK PTSUNNY 74 72 91 CALM 30.04S MANTEO CLOUDY 73 71 94 S12 30.05S $$ NCZ045>047-081-094-103-104-281300- CENTRAL COAST CITY SKY/WX TMP DP RH WIND PRES REMARKS FRISCO MOSUNNY 75 71 87 SW12 30.08R FOG $$ NCZ095-097-098-100-101-281300- SOUTHERN COAST CITY SKY/WX TMP DP RH WIND PRES REMARKS BEAUFORT MOSUNNY 74 74 100 S10 30.08R CEDAR ISLAND NOT AVBL JACKSONVILLE CLOUDY 76 74 93 S10 30.05R PINEY ISLAND PTSUNNY N/A N/A N/A S12 30.07R WILMINGTON PTSUNNY 76 73 91 S12 30.06R $$ NCZ011>013-027>030-043-044-078>080-089-090>093-098-281300- COASTAL PLAIN CITY SKY/WX TMP DP RH WIND PRES REMARKS AHOSKIE N/A 71 70 95 S3 30.04R CLINTON SUNNY 74 73 97 S3 30.05R ELIZABETHTOWN PTSUNNY 74 73 97 S6 30.04R GOLDSBORO SUNNY 74 74 100 S7 30.02R GREENVILLE MOSUNNY 73 73 100 SW7 30.05R HAVELOCK NOT AVBL KENANSVILLE CLOUDY 73 72 94 SW6 30.05R FOG KINSTON MOSUNNY 75 72 88 S7 30.05R NEW BERN PTSUNNY 75 73 93 S9 30.07R RICHLANDS PTSUNNY 75 72 90 S9 30.06R ROCKY MOUNT CLOUDY 73 72 96 S8 30.03R WASHINGTON PTSUNNY 73 71 92 S6 30.05R WHITEVILLE CLOUDY 74 72 91 S7 30.04R $$ AMZ130-135-150-152-154-156-158-170-250-252-270-ANZ085-086-088-633-658-670-281300- MARINE OBSERVATIONS STATION/POSITION TIME TEMP WIND PRES WAVE SWELL AIR SEA DIR/SP/G HT/PER HT/PER (UTC) (F) (DEG/KT/KT) (MB) (FT/S) (FT/S) CHESAPEAKE LIGHT NOT AVBL 64 E VA BEACH 1050 60 56 200/ 10/ 12 1017.3 5/ 8 5/ 8 DUCK 1130 74 56 200/ 11/ 15 1016.6 2 E DUCK 1130 58 N/A 3/ 8 2/11 OREGON INLET 1130 72 71 210/ 14/ 16 1017.8 13E OREGON INLT 1118 62 N/A 5/ 6 3/ 8 HATTERAS CG 1130 74 70 200/ 9/ 14 1018.0 DIAMOND BUOY 1050 77 77 210/ 17/ 21 1018.0 5/ 8 3/ 8 CAPE LOOKOUT 1100 73 200/ 8/ 10 1018.0 BEAUFORT LAB 1130 72 69 190/ 8/ 9 1017.6 30 SE NEW RVR IN 1108 72 210/ 12/ 14 1018.2 30 SE NEW RVR IN 1143 72 N/A 6/ 6 27 SE WRIGHTSVLE 1108 73 72 190/ 10/ 14 1017.4 5 SE WRIGHTSVLE 1108 72 71 190/ 8/ 12 1017.6 225 S CAPE HAT 1050 75 75 180/ 14/ 16 1020.4 4/ 6 3/ 8 41 SE CHARLESTON 1140 75 74 170/ 10/ 12 1017.6 $$

USA.gov is the U.S. government's official web portal to all federal, state and local government web resources and services.